Time,TemperatureF,DewpointF,PressureIn,WindDirection,WindDirectionDegrees,WindSpeedMPH,WindSpeedGustMPH,Humidity,HourlyPrecipIn,Conditions,Clouds,dailyrainin,SoftwareType,DateUTC
2013-10-11 00:00:00,46.8,45.2,29.71,NNW,330,3.0,10.0,94,0.00,,,0.21,Wunderground v.1.15,2013-10-11 06:00:00,
2013-10-11 00:06:00,46.7,45.1,29.70,NNW,341,5.0,10.0,94,0.00,,,0.21,Wunderground v.1.15,2013-10-11 06:06:00,
2013-10-11 00:12:00,46.9,45.5,29.69,NNW,336,6.0,10.0,95,0.00,,,0.21,Wunderground v.1.15,2013-10-11 06:12:00,
2013-10-11 00:18:00,46.9,45.5,29.70,NW,321,4.0,10.0,95,0.00,,,0.21,Wunderground v.1.15,2013-10-11 06:18:00,
2013-10-11 00:24:00,46.9,45.5,29.69,NW,321,2.0,10.0,95,0.00,,,0.21,Wunderground v.1.15,2013-10-11 06:24:00,
2013-10-11 00:30:00,46.8,45.4,29.69,NW,313,3.0,3.0,95,0.00,,,0.21,Wunderground v.1.15,2013-10-11 06:30:00,
2013-10-11 00:36:00,46.8,45.4,29.68,NW,326,4.0,10.0,95,0.00,,,0.21,Wunderground v.1.15,2013-10-11 06:36:00,
2013-10-11 00:42:00,46.8,45.4,29.68,NNW,346,5.0,10.0,95,0.00,,,0.00,Wunderground v.1.15,2013-10-11 06:42:00,
2013-10-11 00:48:00,46.7,45.3,29.68,North,350,6.0,10.0,95,0.00,,,0.00,Wunderground v.1.15,2013-10-11 06:48:00,
2013-10-11 00:54:00,46.3,44.9,29.68,NNW,339,7.0,11.0,95,0.00,,,0.00,Wunderground v.1.15,2013-10-11 06:54:00,
2013-10-11 01:00:00,46.0,44.4,29.69,NW,322,7.0,10.0,94,0.00,,,0.00,Wunderground v.1.15,2013-10-11 07:00:00,
2013-10-11 01:06:00,45.6,44.0,29.69,NW,323,7.0,10.0,94,0.00,,,0.00,Wunderground v.1.15,2013-10-11 07:06:00,
2013-10-11 01:12:00,45.4,43.8,29.69,NNW,337,7.0,10.0,94,0.00,,,0.00,Wunderground v.1.15,2013-10-11 07:12:00,
2013-10-11 01:18:00,45.3,43.7,29.69,North,349,6.0,10.0,94,0.00,,,0.01,Wunderground v.1.15,2013-10-11 07:18:00,
2013-10-11 01:24:00,45.1,43.5,29.69,NW,317,5.0,10.0,94,0.06,,,0.02,Wunderground v.1.15,2013-10-11 07:24:00,
2013-10-11 01:30:00,45.0,43.4,29.69,WNW,301,5.0,5.0,94,0.11,,,0.03,Wunderground v.1.15,2013-10-11 07:30:00,
2013-10-11 01:36:00,44.9,43.3,29.69,NW,304,5.0,10.0,94,0.07,,,0.04,Wunderground v.1.15,2013-10-11 07:36:00,
2013-10-11 01:42:00,44.9,43.3,29.69,NW,318,5.0,10.0,94,0.07,,,0.04,Wunderground v.1.15,2013-10-11 07:42:00,
2013-10-11 01:48:00,44.9,43.3,29.68,NNW,342,5.0,10.0,94,0.04,,,0.04,Wunderground v.1.15,2013-10-11 07:48:00,
2013-10-11 01:54:00,44.8,43.2,29.67,NNW,340,7.0,14.0,94,0.00,,,0.04,Wunderground v.1.15,2013-10-11 07:54:00,
2013-10-11 02:00:00,44.6,43.0,29.67,NNW,328,8.0,10.0,94,0.00,,,0.05,Wunderground v.1.15,2013-10-11 08:00:00,
2013-10-11 02:06:00,44.5,42.9,29.67,NNW,336,8.0,10.0,94,0.07,,,0.06,Wunderground v.1.15,2013-10-11 08:06:00,
2013-10-11 02:12:00,44.5,42.9,29.66,NNW,339,9.0,10.0,94,0.14,,,0.07,Wunderground v.1.15,2013-10-11 08:12:00,
2013-10-11 02:18:00,44.6,43.0,29.66,NNW,343,10.0,15.0,94,0.16,,,0.09,Wunderground v.1.15,2013-10-11 08:18:00,
2013-10-11 02:24:00,44.8,43.5,29.65,NW,320,11.0,14.0,95,0.28,,,0.11,Wunderground v.1.15,2013-10-11 08:24:00,
2013-10-11 02:30:00,44.7,43.4,29.64,WNW,287,11.0,14.0,95,0.08,,,0.11,Wunderground v.1.15,2013-10-11 08:30:00,
2013-10-11 02:36:00,44.8,43.5,29.63,NW,318,12.0,15.0,95,0.20,,,0.13,Wunderground v.1.15,2013-10-11 08:36:00,
2013-10-11 02:42:00,44.9,43.6,29.62,NW,318,11.0,14.0,95,0.11,,,0.14,Wunderground v.1.15,2013-10-11 08:42:00,
2013-10-11 02:48:00,44.9,43.6,29.62,NW,320,11.0,14.0,95,0.13,,,0.15,Wunderground v.1.15,2013-10-11 08:48:00,
2013-10-11 02:54:00,44.8,43.5,29.61,NW,314,11.0,15.0,95,0.16,,,0.17,Wunderground v.1.15,2013-10-11 08:54:00,
2013-10-11 03:00:00,44.7,43.4,29.61,NW,324,11.0,14.0,95,0.13,,,0.18,Wunderground v.1.15,2013-10-11 09:00:00,
2013-10-11 03:06:00,44.6,43.3,29.60,NW,313,10.0,14.0,95,0.30,,,0.20,Wunderground v.1.15,2013-10-11 09:06:00,
2013-10-11 03:12:00,44.7,43.4,29.60,NW,312,11.0,13.0,95,0.27,,,0.23,Wunderground v.1.15,2013-10-11 09:12:00,
2013-10-11 03:18:00,44.8,43.5,29.60,NW,304,12.0,13.0,95,0.19,,,0.26,Wunderground v.1.15,2013-10-11 09:18:00,
2013-10-11 03:24:00,44.9,43.6,29.59,WNW,301,12.0,17.0,95,0.15,,,0.28,Wunderground v.1.15,2013-10-11 09:24:00,
2013-10-11 03:30:00,45.0,43.7,29.58,NNW,330,13.0,16.0,95,0.11,,,0.29,Wunderground v.1.15,2013-10-11 09:30:00,
2013-10-11 03:36:00,45.0,43.7,29.58,WNW,301,14.0,17.0,95,0.08,,,0.29,Wunderground v.1.15,2013-10-11 09:36:00,
2013-10-11 03:42:00,45.0,43.7,29.58,NNW,328,12.0,15.0,95,0.04,,,0.29,Wunderground v.1.15,2013-10-11 09:42:00,
2013-10-11 03:48:00,45.3,44.0,29.58,NW,324,12.0,16.0,95,0.00,,,0.29,Wunderground v.1.15,2013-10-11 09:48:00,
2013-10-11 03:54:00,45.6,44.3,29.57,NW,318,13.0,18.0,95,0.00,,,0.30,Wunderground v.1.15,2013-10-11 09:54:00,
2013-10-11 04:00:00,45.5,44.2,29.57,NW,324,12.0,12.0,95,0.00,,,0.30,Wunderground v.1.15,2013-10-11 10:00:00,
2013-10-11 04:06:00,45.5,44.2,29.57,NW,313,10.0,13.0,95,0.04,,,0.31,Wunderground v.1.15,2013-10-11 10:06:00,
2013-10-11 04:12:00,45.7,44.4,29.57,NW,316,10.0,10.0,95,0.04,,,0.31,Wunderground v.1.15,2013-10-11 10:12:00,
2013-10-11 04:18:00,45.7,44.1,29.57,NW,326,11.0,17.0,94,0.04,,,0.31,Wunderground v.1.15,2013-10-11 10:18:00,
2013-10-11 04:24:00,45.9,44.3,29.57,West,264,12.0,15.0,94,0.00,,,0.31,Wunderground v.1.15,2013-10-11 10:24:00,
2013-10-11 04:30:00,45.9,44.3,29.57,NW,318,8.0,8.0,94,0.00,,,0.31,Wunderground v.1.15,2013-10-11 10:30:00,
2013-10-11 04:36:00,46.0,44.4,29.57,NNW,341,11.0,18.0,94,0.00,,,0.31,Wunderground v.1.15,2013-10-11 10:36:00,
2013-10-11 04:42:00,46.1,44.5,29.57,NW,318,14.0,18.0,94,0.00,,,0.31,Wunderground v.1.15,2013-10-11 10:42:00,
2013-10-11 04:48:00,46.0,44.4,29.57,North,354,14.0,18.0,94,0.00,,,0.31,Wunderground v.1.15,2013-10-11 10:48:00,
2013-10-11 04:54:00,46.1,44.5,29.57,NW,318,12.0,14.0,94,0.72,,,0.33,Wunderground v.1.15,2013-10-11 10:54:00,
2013-10-11 05:00:00,46.0,44.4,29.56,NNW,328,14.0,14.0,94,0.36,,,0.40,Wunderground v.1.15,2013-10-11 11:00:00,
2013-10-11 05:06:00,46.2,44.6,29.56,NW,323,15.0,15.0,94,0.10,,,0.40,Wunderground v.1.15,2013-10-11 11:06:00,
2013-10-11 05:12:00,46.4,44.8,29.57,NW,314,14.0,15.0,94,0.09,,,0.41,Wunderground v.1.15,2013-10-11 11:12:00,
2013-10-11 05:18:00,46.4,44.8,29.57,North,349,12.0,15.0,94,0.05,,,0.41,Wunderground v.1.15,2013-10-11 11:18:00,
2013-10-11 05:24:00,46.3,44.7,29.57,NW,325,12.0,14.0,94,0.00,,,0.41,Wunderground v.1.15,2013-10-11 11:24:00,
2013-10-11 05:30:00,46.4,44.8,29.57,NW,322,12.0,12.0,94,0.00,,,0.41,Wunderground v.1.15,2013-10-11 11:30:00,
2013-10-11 05:36:00,46.3,44.7,29.57,NW,323,11.0,13.0,94,0.00,,,0.41,Wunderground v.1.15,2013-10-11 11:36:00,
2013-10-11 05:42:00,46.3,44.7,29.57,NNW,331,12.0,12.0,94,0.00,,,0.41,Wunderground v.1.15,2013-10-11 11:42:00,
2013-10-11 05:48:00,46.3,44.7,29.56,NW,326,12.0,14.0,94,0.00,,,0.41,Wunderground v.1.15,2013-10-11 11:48:00,
2013-10-11 05:54:00,46.5,44.9,29.56,NNW,340,14.0,14.0,94,0.00,,,0.41,Wunderground v.1.15,2013-10-11 11:54:00,
2013-10-11 06:00:00,46.6,45.0,29.56,NW,326,15.0,15.0,94,0.00,,,0.41,Wunderground v.1.15,2013-10-11 12:00:00,
2013-10-11 06:06:00,46.5,44.9,29.56,NW,324,14.0,16.0,94,0.00,,,0.42,Wunderground v.1.15,2013-10-11 12:06:00,
2013-10-11 06:12:00,46.5,44.9,29.56,North,354,14.0,17.0,94,0.00,,,0.42,Wunderground v.1.15,2013-10-11 12:12:00,
2013-10-11 06:18:00,46.5,44.9,29.56,NNW,334,14.0,17.0,94,0.00,,,0.42,Wunderground v.1.15,2013-10-11 12:18:00,
2013-10-11 06:24:00,46.6,45.0,29.56,NW,326,13.0,14.0,94,0.00,,,0.42,Wunderground v.1.15,2013-10-11 12:24:00,
2013-10-11 06:30:00,46.7,45.1,29.56,NW,305,13.0,16.0,94,0.00,,,0.42,Wunderground v.1.15,2013-10-11 12:30:00,
2013-10-11 06:36:00,46.9,45.3,29.55,WNW,297,13.0,27.0,94,0.22,,,0.44,Wunderground v.1.15,2013-10-11 12:36:00,
2013-10-11 06:42:00,47.1,45.5,29.55,NW,322,16.0,31.0,94,0.19,,,0.46,Wunderground v.1.15,2013-10-11 12:42:00,
2013-10-11 06:48:00,47.2,45.6,29.56,NNW,331,18.0,31.0,94,0.13,,,0.47,Wunderground v.1.15,2013-10-11 12:48:00,
2013-10-11 06:54:00,47.4,45.8,29.55,NW,321,16.0,23.0,94,0.08,,,0.48,Wunderground v.1.15,2013-10-11 12:54:00,
2013-10-11 07:00:00,47.6,46.0,29.56,NNW,327,19.0,20.0,94,0.08,,,0.49,Wunderground v.1.15,2013-10-11 13:00:00,
2013-10-11 07:06:00,47.6,46.0,29.56,NW,314,20.0,26.0,94,0.16,,,0.51,Wunderground v.1.15,2013-10-11 13:06:00,
2013-10-11 07:12:00,47.6,45.7,29.56,NW,316,19.0,21.0,93,0.06,,,0.51,Wunderground v.1.15,2013-10-11 13:12:00,
2013-10-11 07:18:00,46.9,45.0,29.56,NW,311,16.0,23.0,93,0.48,,,0.54,Wunderground v.1.15,2013-10-11 13:18:00,
2013-10-11 07:24:00,46.5,44.6,29.56,NW,326,19.0,23.0,93,0.15,,,0.56,Wunderground v.1.15,2013-10-11 13:24:00,
2013-10-11 07:30:00,46.0,44.1,29.57,NW,316,21.0,21.0,93,0.11,,,0.57,Wunderground v.1.15,2013-10-11 13:30:00,
2013-10-11 07:36:00,45.7,43.8,29.57,NW,305,19.0,21.0,93,0.22,,,0.59,Wunderground v.1.15,2013-10-11 13:36:00,
2013-10-11 07:42:00,45.9,43.4,29.57,WNW,297,19.0,19.0,91,0.26,,,0.62,Wunderground v.1.15,2013-10-11 13:42:00,
2013-10-11 07:48:00,46.0,42.9,29.57,WNW,287,22.0,22.0,89,0.09,,,0.63,Wunderground v.1.15,2013-10-11 13:48:00,
2013-10-11 07:54:00,46.1,42.7,29.57,NW,310,24.0,30.0,88,0.08,,,0.63,Wunderground v.1.15,2013-10-11 13:54:00,
2013-10-11 08:00:00,45.8,41.9,29.58,WNW,301,26.0,26.0,86,0.04,,,0.63,Wunderground v.1.15,2013-10-11 14:00:00,
2013-10-11 08:06:00,45.2,41.0,29.58,WNW,302,28.0,36.0,85,0.00,,,0.63,Wunderground v.1.15,2013-10-11 14:06:00,
2013-10-11 08:12:00,44.6,40.7,29.59,NW,317,27.0,34.0,86,0.00,,,0.63,Wunderground v.1.15,2013-10-11 14:12:00,
2013-10-11 08:18:00,44.3,40.7,29.60,WNW,303,29.0,41.0,87,0.19,,,0.65,Wunderground v.1.15,2013-10-11 14:18:00,
2013-10-11 08:24:00,44.1,40.8,29.60,NW,322,30.0,39.0,88,0.08,,,0.66,Wunderground v.1.15,2013-10-11 14:24:00,
2013-10-11 08:30:00,43.7,40.7,29.61,WNW,302,28.0,32.0,89,0.14,,,0.68,Wunderground v.1.15,2013-10-11 14:30:00,
2013-10-11 08:36:00,43.8,40.5,29.61,NW,304,27.0,35.0,88,0.11,,,0.69,Wunderground v.1.15,2013-10-11 14:36:00,
2013-10-11 08:42:00,43.7,40.4,29.62,NW,310,27.0,34.0,88,0.05,,,0.69,Wunderground v.1.15,2013-10-11 14:42:00,
2013-10-11 08:48:00,43.8,40.2,29.62,NW,312,28.0,34.0,87,0.00,,,0.69,Wunderground v.1.15,2013-10-11 14:48:00,
2013-10-11 08:54:00,43.6,40.0,29.63,NW,315,30.0,35.0,87,0.00,,,0.69,Wunderground v.1.15,2013-10-11 14:54:00,
2013-10-11 09:00:00,43.3,40.3,29.64,NW,320,30.0,31.0,89,0.00,,,0.69,Wunderground v.1.15,2013-10-11 15:00:00,
2013-10-11 09:06:00,43.2,39.6,29.65,NW,317,33.0,38.0,87,0.00,,,0.69,Wunderground v.1.15,2013-10-11 15:06:00,
2013-10-11 09:12:00,42.9,39.3,29.65,NW,306,31.0,41.0,87,0.00,,,0.69,Wunderground v.1.15,2013-10-11 15:12:00,
2013-10-11 09:18:00,42.7,39.4,29.66,NW,324,29.0,41.0,88,0.00,,,0.69,Wunderground v.1.15,2013-10-11 15:18:00,
2013-10-11 09:24:00,42.5,39.2,29.67,West,280,29.0,30.0,88,0.00,,,0.69,Wunderground v.1.15,2013-10-11 15:24:00,
2013-10-11 09:30:00,42.5,38.9,29.68,WNW,291,30.0,30.0,87,0.00,,,0.69,Wunderground v.1.15,2013-10-11 15:30:00,
2013-10-11 09:36:00,42.0,38.7,29.69,NW,310,29.0,35.0,88,0.00,,,0.70,Wunderground v.1.15,2013-10-11 15:36:00,
2013-10-11 09:42:00,41.6,38.3,29.69,WNW,295,27.0,27.0,88,0.18,,,0.72,Wunderground v.1.15,2013-10-11 15:42:00,
2013-10-11 09:48:00,41.6,38.0,29.69,WNW,299,28.0,39.0,87,0.13,,,0.73,Wunderground v.1.15,2013-10-11 15:48:00,
2013-10-11 09:54:00,41.5,37.9,29.70,NW,316,29.0,34.0,87,0.08,,,0.73,Wunderground v.1.15,2013-10-11 15:54:00,
2013-10-11 10:00:00,41.5,37.6,29.71,NW,309,31.0,31.0,86,0.04,,,0.73,Wunderground v.1.15,2013-10-11 16:00:00,
2013-10-11 10:06:00,41.4,37.5,29.71,WNW,301,31.0,42.0,86,0.00,,,0.73,Wunderground v.1.15,2013-10-11 16:06:00,
2013-10-11 10:12:00,41.5,37.6,29.72,NW,316,30.0,31.0,86,0.00,,,0.73,Wunderground v.1.15,2013-10-11 16:12:00,
2013-10-11 10:18:00,41.5,37.6,29.72,NW,312,31.0,42.0,86,0.00,,,0.73,Wunderground v.1.15,2013-10-11 16:18:00,
2013-10-11 10:24:00,41.6,37.7,29.73,WNW,293,30.0,41.0,86,0.00,,,0.73,Wunderground v.1.15,2013-10-11 16:24:00,
2013-10-11 10:30:00,41.6,37.7,29.73,WNW,295,29.0,29.0,86,0.00,,,0.73,Wunderground v.1.15,2013-10-11 16:30:00,
2013-10-11 10:36:00,41.8,37.6,29.73,NW,307,31.0,44.0,85,0.00,,,0.73,Wunderground v.1.15,2013-10-11 16:36:00,
2013-10-11 10:42:00,41.6,37.7,29.74,NW,308,30.0,32.0,86,0.15,,,0.75,Wunderground v.1.15,2013-10-11 16:42:00,
2013-10-11 10:48:00,41.8,37.6,29.75,WNW,302,29.0,33.0,85,0.08,,,0.75,Wunderground v.1.15,2013-10-11 16:48:00,
2013-10-11 10:54:00,42.1,37.9,29.75,WNW,294,29.0,40.0,85,0.04,,,0.75,Wunderground v.1.15,2013-10-11 16:54:00,
2013-10-11 11:00:00,42.2,37.7,29.76,WNW,302,31.0,31.0,84,0.00,,,0.75,Wunderground v.1.15,2013-10-11 17:00:00,
2013-10-11 11:06:00,41.7,37.5,29.77,WNW,302,32.0,36.0,85,0.00,,,0.75,Wunderground v.1.15,2013-10-11 17:06:00,
2013-10-11 11:12:00,41.3,37.7,29.77,NNW,337,29.0,31.0,87,0.00,,,0.75,Wunderground v.1.15,2013-10-11 17:12:00,
2013-10-11 11:18:00,41.1,37.5,29.77,WNW,301,26.0,31.0,87,0.00,,,0.75,Wunderground v.1.15,2013-10-11 17:18:00,
2013-10-11 11:24:00,41.2,37.9,29.78,NW,322,26.0,37.0,88,0.00,,,0.76,Wunderground v.1.15,2013-10-11 17:24:00,
2013-10-11 11:30:00,41.6,38.3,29.78,NW,304,26.0,26.0,88,0.00,,,0.76,Wunderground v.1.15,2013-10-11 17:30:00,
2013-10-11 11:36:00,42.5,39.2,29.79,WNW,299,26.0,33.0,88,0.00,,,0.76,Wunderground v.1.15,2013-10-11 17:36:00,
2013-10-11 11:42:00,43.2,39.9,29.80,NW,312,27.0,27.0,88,0.00,,,0.76,Wunderground v.1.15,2013-10-11 17:42:00,
2013-10-11 11:48:00,43.8,40.5,29.80,WNW,291,23.0,27.0,88,0.00,,,0.76,Wunderground v.1.15,2013-10-11 17:48:00,
2013-10-11 11:54:00,44.3,40.1,29.80,NW,309,21.0,23.0,85,0.00,,,0.76,Wunderground v.1.15,2013-10-11 17:54:00,
2013-10-11 12:00:00,44.5,39.7,29.80,NW,306,23.0,26.0,83,0.00,,,0.76,Wunderground v.1.15,2013-10-11 18:00:00,
2013-10-11 12:06:00,44.7,39.5,29.80,WNW,286,25.0,27.0,82,0.00,,,0.76,Wunderground v.1.15,2013-10-11 18:06:00,
2013-10-11 12:12:00,45.0,39.5,29.80,NW,317,25.0,45.0,81,0.00,,,0.76,Wunderground v.1.15,2013-10-11 18:12:00,
2013-10-11 12:18:00,45.1,39.6,29.80,NW,311,25.0,45.0,81,0.00,,,0.76,Wunderground v.1.15,2013-10-11 18:18:00,
2013-10-11 12:24:00,45.2,39.1,29.80,NW,324,28.0,30.0,79,0.00,,,0.76,Wunderground v.1.15,2013-10-11 18:24:00,
2013-10-11 12:30:00,45.3,39.2,29.80,NW,314,27.0,27.0,79,0.00,,,0.76,Wunderground v.1.15,2013-10-11 18:30:00,
2013-10-11 12:36:00,45.6,39.1,29.81,NW,325,28.0,32.0,78,0.00,,,0.76,Wunderground v.1.15,2013-10-11 18:36:00,
2013-10-11 12:42:00,45.9,39.1,29.80,NW,312,29.0,35.0,77,0.00,,,0.76,Wunderground v.1.15,2013-10-11 18:42:00,
2013-10-11 12:48:00,46.1,39.3,29.80,WNW,303,28.0,35.0,77,0.00,,,0.76,Wunderground v.1.15,2013-10-11 18:48:00,
2013-10-11 12:54:00,46.5,39.0,29.81,NW,305,28.0,37.0,75,0.00,,,0.76,Wunderground v.1.15,2013-10-11 18:54:00,
2013-10-11 13:00:00,46.8,39.6,29.81,NW,322,27.0,33.0,76,0.00,,,0.76,Wunderground v.1.15,2013-10-11 19:00:00,
2013-10-11 13:06:00,46.9,39.0,29.81,WNW,293,28.0,33.0,74,0.00,,,0.76,Wunderground v.1.15,2013-10-11 19:06:00,
2013-10-11 13:12:00,47.1,38.9,29.81,WNW,303,28.0,31.0,73,0.00,,,0.76,Wunderground v.1.15,2013-10-11 19:12:00,
2013-10-11 13:18:00,46.8,38.6,29.82,NNW,330,27.0,36.0,73,0.00,,,0.76,Wunderground v.1.15,2013-10-11 19:18:00,
2013-10-11 13:24:00,46.9,38.3,29.83,WNW,298,25.0,31.0,72,0.00,,,0.76,Wunderground v.1.15,2013-10-11 19:24:00,
2013-10-11 13:30:00,47.6,39.4,29.84,WNW,299,25.0,27.0,73,0.00,,,0.76,Wunderground v.1.15,2013-10-11 19:30:00,
2013-10-11 13:36:00,48.0,39.8,29.85,NW,310,21.0,27.0,73,0.00,,,0.76,Wunderground v.1.15,2013-10-11 19:36:00,
2013-10-11 13:42:00,47.8,38.8,29.87,WNW,293,21.0,27.0,71,0.00,,,0.76,Wunderground v.1.15,2013-10-11 19:42:00,
2013-10-11 13:48:00,47.8,38.5,29.87,NNW,341,23.0,27.0,70,0.00,,,0.76,Wunderground v.1.15,2013-10-11 19:48:00,
2013-10-11 13:54:00,47.9,38.2,29.88,NNW,341,24.0,29.0,69,0.00,,,0.76,Wunderground v.1.15,2013-10-11 19:54:00,
2013-10-11 14:00:00,48.0,37.9,29.88,WNW,297,25.0,25.0,68,0.00,,,0.76,Wunderground v.1.15,2013-10-11 20:00:00,
2013-10-11 14:06:00,48.7,37.8,29.89,NW,316,25.0,28.0,66,0.00,,,0.76,Wunderground v.1.15,2013-10-11 20:06:00,
2013-10-11 14:12:00,49.4,37.3,29.90,WNW,292,23.0,24.0,63,0.00,,,0.76,Wunderground v.1.15,2013-10-11 20:12:00,
2013-10-11 14:18:00,49.7,37.2,29.89,NW,313,24.0,27.0,62,0.00,,,0.76,Wunderground v.1.15,2013-10-11 20:18:00,
2013-10-11 14:24:00,49.6,37.5,29.90,NW,305,25.0,33.0,63,0.00,,,0.76,Wunderground v.1.15,2013-10-11 20:24:00,
2013-10-11 14:30:00,49.6,37.5,29.90,West,273,25.0,25.0,63,0.00,,,0.76,Wunderground v.1.15,2013-10-11 20:30:00,
2013-10-11 14:36:00,49.6,36.7,29.90,WNW,293,25.0,26.0,61,0.00,,,0.76,Wunderground v.1.15,2013-10-11 20:36:00,
2013-10-11 14:42:00,49.5,37.0,29.90,NW,308,24.0,25.0,62,0.00,,,0.76,Wunderground v.1.15,2013-10-11 20:42:00,
2013-10-11 14:48:00,49.4,37.7,29.90,NW,305,21.0,26.0,64,0.00,,,0.76,Wunderground v.1.15,2013-10-11 20:48:00,
2013-10-11 14:54:00,49.6,37.5,29.91,WNW,300,20.0,22.0,63,0.00,,,0.76,Wunderground v.1.15,2013-10-11 20:54:00,
2013-10-11 15:00:00,49.9,37.4,29.91,WNW,297,22.0,22.0,62,0.00,,,0.76,Wunderground v.1.15,2013-10-11 21:00:00,
2013-10-11 15:06:00,50.2,36.8,29.91,NW,306,24.0,27.0,60,0.00,,,0.76,Wunderground v.1.15,2013-10-11 21:06:00,
2013-10-11 15:12:00,50.1,36.7,29.91,WNW,287,24.0,25.0,60,0.00,,,0.76,Wunderground v.1.15,2013-10-11 21:12:00,
2013-10-11 15:18:00,50.2,36.8,29.92,WNW,300,24.0,27.0,60,0.00,,,0.76,Wunderground v.1.15,2013-10-11 21:18:00,
2013-10-11 15:24:00,50.2,36.4,29.92,WNW,295,23.0,27.0,59,0.00,,,0.76,Wunderground v.1.15,2013-10-11 21:24:00,
2013-10-11 15:30:00,50.8,37.0,29.91,NW,305,24.0,24.0,59,0.00,,,0.76,Wunderground v.1.15,2013-10-11 21:30:00,
2013-10-11 15:36:00,51.4,36.7,29.91,NW,312,25.0,29.0,57,0.00,,,0.76,Wunderground v.1.15,2013-10-11 21:36:00,
2013-10-11 15:42:00,51.6,36.4,29.91,WNW,302,25.0,34.0,56,0.00,,,0.76,Wunderground v.1.15,2013-10-11 21:42:00,
2013-10-11 15:48:00,51.5,37.2,29.92,WNW,303,24.0,34.0,58,0.00,,,0.76,Wunderground v.1.15,2013-10-11 21:48:00,
2013-10-11 15:54:00,51.3,36.1,29.92,NW,310,24.0,28.0,56,0.00,,,0.76,Wunderground v.1.15,2013-10-11 21:54:00,
2013-10-11 16:00:00,51.3,36.6,29.92,WNW,286,22.0,28.0,57,0.00,,,0.76,Wunderground v.1.15,2013-10-11 22:00:00,
2013-10-11 16:06:00,51.3,36.6,29.93,NW,305,22.0,28.0,57,0.00,,,0.76,Wunderground v.1.15,2013-10-11 22:06:00,
2013-10-11 16:12:00,51.2,36.5,29.94,WNW,297,24.0,29.0,57,0.00,,,0.76,Wunderground v.1.15,2013-10-11 22:12:00,
2013-10-11 16:18:00,50.9,36.2,29.94,WNW,303,21.0,29.0,57,0.00,,,0.76,Wunderground v.1.15,2013-10-11 22:18:00,
2013-10-11 16:24:00,50.3,36.5,29.95,WNW,297,16.0,18.0,59,0.00,,,0.76,Wunderground v.1.15,2013-10-11 22:24:00,
2013-10-11 16:30:00,49.8,36.0,29.96,NW,309,13.0,13.0,59,0.00,,,0.76,Wunderground v.1.15,2013-10-11 22:30:00,
2013-10-11 16:36:00,49.7,35.9,29.96,WNW,291,11.0,13.0,59,0.00,,,0.76,Wunderground v.1.15,2013-10-11 22:36:00,
2013-10-11 16:42:00,49.4,35.7,29.96,NW,304,10.0,10.0,59,0.00,,,0.76,Wunderground v.1.15,2013-10-11 22:42:00,
2013-10-11 16:48:00,49.7,35.5,29.97,West,280,12.0,16.0,58,0.00,,,0.76,Wunderground v.1.15,2013-10-11 22:48:00,
2013-10-11 16:54:00,49.6,35.4,29.98,WNW,297,14.0,14.0,58,0.00,,,0.76,Wunderground v.1.15,2013-10-11 22:54:00,
2013-10-11 17:00:00,49.5,35.3,29.99,NW,312,13.0,13.0,58,0.00,,,0.76,Wunderground v.1.15,2013-10-11 23:00:00,
2013-10-11 17:06:00,49.4,35.7,29.99,WNW,301,11.0,15.0,59,0.00,,,0.76,Wunderground v.1.15,2013-10-11 23:06:00,
2013-10-11 17:12:00,49.4,35.2,29.99,WNW,299,11.0,13.0,58,0.00,,,0.76,Wunderground v.1.15,2013-10-11 23:12:00,
2013-10-11 17:18:00,49.7,35.1,29.99,WNW,297,14.0,21.0,57,0.00,,,0.76,Wunderground v.1.15,2013-10-11 23:18:00,
2013-10-11 17:24:00,49.7,35.9,30.00,NW,312,13.0,15.0,59,0.00,,,0.76,Wunderground v.1.15,2013-10-11 23:24:00,
2013-10-11 17:30:00,49.8,35.6,30.01,WNW,303,11.0,15.0,58,0.00,,,0.76,Wunderground v.1.15,2013-10-11 23:30:00,
2013-10-11 17:36:00,50.3,35.6,30.01,WNW,295,11.0,18.0,57,0.00,,,0.76,Wunderground v.1.15,2013-10-11 23:36:00,
2013-10-11 17:42:00,50.5,35.8,30.02,NNW,330,11.0,12.0,57,0.00,,,0.76,Wunderground v.1.15,2013-10-11 23:42:00,
2013-10-11 17:48:00,50.1,36.7,30.03,NNW,334,9.0,15.0,60,0.00,,,0.76,Wunderground v.1.15,2013-10-11 23:48:00,
2013-10-11 17:54:00,48.2,38.1,30.04,NNW,338,11.0,11.0,68,0.00,,,0.76,Wunderground v.1.15,2013-10-11 23:54:00,
2013-10-11 18:00:00,47.3,38.4,30.03,NNW,335,9.0,10.0,71,0.00,,,0.76,Wunderground v.1.15,2013-10-12 00:00:00,
2013-10-11 18:06:00,46.8,38.2,30.04,NNW,328,10.0,10.0,72,0.00,,,0.76,Wunderground v.1.15,2013-10-12 00:06:00,
2013-10-11 18:12:00,46.6,37.7,30.04,NW,318,10.0,11.0,71,0.00,,,0.76,Wunderground v.1.15,2013-10-12 00:12:00,
2013-10-11 18:18:00,46.4,37.5,30.05,NW,322,10.0,11.0,71,0.00,,,0.76,Wunderground v.1.15,2013-10-12 00:18:00,
2013-10-11 18:24:00,45.9,37.7,30.05,NW,309,11.0,16.0,73,0.00,,,0.76,Wunderground v.1.15,2013-10-12 00:24:00,
2013-10-11 18:30:00,45.6,37.8,30.06,NW,320,12.0,12.0,74,0.00,,,0.76,Wunderground v.1.15,2013-10-12 00:30:00,
2013-10-11 18:36:00,45.5,37.7,30.06,NNW,330,12.0,13.0,74,0.00,,,0.76,Wunderground v.1.15,2013-10-12 00:36:00,
2013-10-11 18:42:00,45.3,37.5,30.06,NNW,332,10.0,11.0,74,0.00,,,0.76,Wunderground v.1.15,2013-10-12 00:42:00,
2013-10-11 18:48:00,44.8,37.4,30.06,NW,317,9.0,11.0,75,0.00,,,0.76,Wunderground v.1.15,2013-10-12 00:48:00,
2013-10-11 18:54:00,44.8,37.4,30.07,NW,321,8.0,10.0,75,0.00,,,0.76,Wunderground v.1.15,2013-10-12 00:54:00,
2013-10-11 19:00:00,44.9,36.8,30.07,NW,316,7.0,7.0,73,0.00,,,0.76,Wunderground v.1.15,2013-10-12 01:00:00,
2013-10-11 19:06:00,44.9,36.1,30.08,WNW,299,5.0,10.0,71,0.00,,,0.76,Wunderground v.1.15,2013-10-12 01:06:00,
2013-10-11 19:12:00,45.6,35.3,30.08,WNW,294,6.0,10.0,67,0.00,,,0.76,Wunderground v.1.15,2013-10-12 01:12:00,
2013-10-11 19:18:00,46.1,34.6,30.08,WNW,298,8.0,15.0,64,0.00,,,0.76,Wunderground v.1.15,2013-10-12 01:18:00,
2013-10-11 19:24:00,46.6,34.3,30.09,WNW,298,10.0,11.0,62,0.00,,,0.76,Wunderground v.1.15,2013-10-12 01:24:00,
2013-10-11 19:30:00,46.7,34.4,30.09,WNW,298,10.0,10.0,62,0.00,,,0.76,Wunderground v.1.15,2013-10-12 01:30:00,
2013-10-11 19:36:00,46.2,34.7,30.10,NW,305,9.0,10.0,64,0.00,,,0.76,Wunderground v.1.15,2013-10-12 01:36:00,
2013-10-11 19:42:00,46.3,34.4,30.10,WNW,299,9.0,10.0,63,0.00,,,0.76,Wunderground v.1.15,2013-10-12 01:42:00,
2013-10-11 19:48:00,46.5,34.6,30.10,NW,305,11.0,14.0,63,0.00,,,0.76,Wunderground v.1.15,2013-10-12 01:48:00,
2013-10-11 19:54:00,46.3,34.4,30.10,WNW,282,10.0,15.0,63,0.00,,,0.76,Wunderground v.1.15,2013-10-12 01:54:00,
2013-10-11 20:00:00,45.9,34.4,30.11,West,277,8.0,8.0,64,0.00,,,0.76,Wunderground v.1.15,2013-10-12 02:00:00,
2013-10-11 20:06:00,44.9,34.2,30.11,West,273,5.0,10.0,66,0.00,,,0.76,Wunderground v.1.15,2013-10-12 02:06:00,
2013-10-11 20:12:00,44.3,34.0,30.11,WNW,286,4.0,10.0,67,0.00,,,0.76,Wunderground v.1.15,2013-10-12 02:12:00,
2013-10-11 20:18:00,44.1,34.2,30.12,WNW,286,4.0,10.0,68,0.00,,,0.76,Wunderground v.1.15,2013-10-12 02:18:00,
2013-10-11 20:24:00,44.5,34.2,30.12,WNW,291,6.0,13.0,67,0.00,,,0.76,Wunderground v.1.15,2013-10-12 02:24:00,
2013-10-11 20:30:00,44.4,34.5,30.12,WNW,289,6.0,6.0,68,0.00,,,0.76,Wunderground v.1.15,2013-10-12 02:30:00,
2013-10-11 20:36:00,44.3,34.8,30.13,NW,317,5.0,10.0,69,0.00,,,0.76,Wunderground v.1.15,2013-10-12 02:36:00,
2013-10-11 20:42:00,45.0,34.7,30.13,WNW,293,7.0,10.0,67,0.00,,,0.76,Wunderground v.1.15,2013-10-12 02:42:00,
2013-10-11 20:48:00,45.1,34.4,30.13,WNW,294,8.0,11.0,66,0.00,,,0.76,Wunderground v.1.15,2013-10-12 02:48:00,
2013-10-11 20:54:00,45.7,34.6,30.14,WNW,301,10.0,13.0,65,0.00,,,0.76,Wunderground v.1.15,2013-10-12 02:54:00,
2013-10-11 21:00:00,46.3,34.4,30.14,NNW,343,13.0,13.0,63,0.00,,,0.76,Wunderground v.1.15,2013-10-12 03:00:00,
2013-10-11 21:06:00,46.1,33.8,30.14,WNW,299,14.0,19.0,62,0.00,,,0.76,Wunderground v.1.15,2013-10-12 03:06:00,
2013-10-11 21:12:00,46.1,33.4,30.14,WNW,297,14.0,18.0,61,0.00,,,0.76,Wunderground v.1.15,2013-10-12 03:12:00,
2013-10-11 21:18:00,45.9,32.8,30.14,WNW,300,13.0,18.0,60,0.00,,,0.76,Wunderground v.1.15,2013-10-12 03:18:00,
2013-10-11 21:24:00,46.2,32.2,30.14,West,281,14.0,14.0,58,0.00,,,0.76,Wunderground v.1.15,2013-10-12 03:24:00,
2013-10-11 21:30:00,45.8,32.3,30.15,West,281,15.0,18.0,59,0.00,,,0.76,Wunderground v.1.15,2013-10-12 03:30:00,
2013-10-11 21:36:00,45.8,31.9,30.15,NW,306,15.0,18.0,58,0.00,,,0.76,Wunderground v.1.15,2013-10-12 03:36:00,
2013-10-11 21:42:00,45.6,31.2,30.15,WNW,299,14.0,14.0,57,0.00,,,0.76,Wunderground v.1.15,2013-10-12 03:42:00,
2013-10-11 21:48:00,45.6,31.2,30.16,West,263,14.0,15.0,57,0.00,,,0.76,Wunderground v.1.15,2013-10-12 03:48:00,
2013-10-11 21:54:00,45.4,31.0,30.16,NW,308,14.0,14.0,57,0.00,,,0.76,Wunderground v.1.15,2013-10-12 03:54:00,
2013-10-11 22:00:00,45.2,30.9,30.16,WNW,294,13.0,13.0,57,0.00,,,0.76,Wunderground v.1.15,2013-10-12 04:00:00,
2013-10-11 22:02:00,45.0,31.1,30.16,WNW,301,13.0,13.0,58,0.00,,,0.76,Wunderground v.1.15,2013-10-12 04:02:00,
2013-10-11 22:06:00,44.6,31.1,30.17,WNW,303,11.0,16.0,59,0.00,,,0.76,Wunderground v.1.15,2013-10-12 04:06:00,
2013-10-11 22:08:00,44.5,30.6,30.17,WNW,289,11.0,16.0,58,0.00,,,0.76,Wunderground v.1.15,2013-10-12 04:08:00,
2013-10-11 22:12:00,44.3,30.9,30.17,WNW,284,10.0,10.0,59,0.00,,,0.76,Wunderground v.1.15,2013-10-12 04:12:00,
2013-10-11 22:18:00,44.1,30.7,30.17,WNW,296,9.0,12.0,59,0.00,,,0.76,Wunderground v.1.15,2013-10-12 04:18:00,
2013-10-11 22:24:00,44.0,30.6,30.17,WNW,285,9.0,13.0,59,0.00,,,0.76,Wunderground v.1.15,2013-10-12 04:24:00,
2013-10-11 22:30:00,43.6,30.2,30.18,WNW,299,8.0,8.0,59,0.00,,,0.76,Wunderground v.1.15,2013-10-12 04:30:00,
2013-10-11 22:36:00,43.4,30.0,30.18,West,277,8.0,10.0,59,0.00,,,0.76,Wunderground v.1.15,2013-10-12 04:36:00,
2013-10-11 22:42:00,42.7,30.6,30.18,West,276,8.0,11.0,62,0.00,,,0.76,Wunderground v.1.15,2013-10-12 04:42:00,
2013-10-11 22:48:00,42.8,30.7,30.18,WNW,284,8.0,11.0,62,0.00,,,0.76,Wunderground v.1.15,2013-10-12 04:48:00,
2013-10-11 22:54:00,42.8,30.7,30.18,WNW,300,7.0,10.0,62,0.00,,,0.76,Wunderground v.1.15,2013-10-12 04:54:00,
2013-10-11 23:00:00,42.7,31.0,30.19,WNW,283,7.0,7.0,63,0.00,,,0.76,Wunderground v.1.15,2013-10-12 05:00:00,
2013-10-11 23:06:00,42.9,30.8,30.19,WNW,284,7.0,11.0,62,0.00,,,0.76,Wunderground v.1.15,2013-10-12 05:06:00,
2013-10-11 23:12:00,43.0,30.9,30.19,West,276,8.0,12.0,62,0.00,,,0.76,Wunderground v.1.15,2013-10-12 05:12:00,
2013-10-11 23:14:00,43.1,31.0,30.19,West,269,8.0,12.0,62,0.00,,,0.76,Wunderground v.1.15,2013-10-12 05:14:00,
2013-10-11 23:20:00,42.7,30.6,30.19,WSW,241,7.0,10.0,62,0.00,,,0.76,Wunderground v.1.15,2013-10-12 05:20:00,
2013-10-11 23:26:00,42.7,31.0,30.19,West,266,6.0,12.0,63,0.00,,,0.76,Wunderground v.1.15,2013-10-12 05:26:00,
2013-10-11 23:32:00,42.7,31.0,30.19,West,274,7.0,11.0,63,0.00,,,0.76,Wunderground v.1.15,2013-10-12 05:32:00,
2013-10-11 23:38:00,42.3,30.6,30.20,West,274,7.0,11.0,63,0.00,,,0.76,Wunderground v.1.15,2013-10-12 05:38:00,
2013-10-11 23:44:00,42.2,30.5,30.20,West,278,7.0,10.0,63,0.00,,,0.76,Wunderground v.1.15,2013-10-12 05:44:00,
2013-10-11 23:50:00,42.0,30.7,30.20,West,268,6.0,6.0,64,0.00,,,0.76,Wunderground v.1.15,2013-10-12 05:50:00,
2013-10-11 23:56:00,41.7,30.4,30.20,West,272,5.0,10.0,64,0.00,,,0.76,Wunderground v.1.15,2013-10-12 05:56:00,